(187) Lamberta
ephemeris date magn radius delta ra dec elong phase
Today18 Apr 202414.43.108 AU3.983 AU00h16m-02°20'25.6°8.0°
Opposition14 Oct 202412.93.338 AU2.341 AU01h19m+08°21'179.7°0.1°
(187) Lamberta - 2024-04-18
astro.vanbuitenen.nl


 
-1 year
-1 month
-1 day
Now
+1 day
+1 month
+1 year

The interactive orbit chart above shows the body's path through the solar system and its position at the given date. Green and blue lines are shown perpendicular to the ecliptic plane: Green if the path is above the ecliptic plane, blue if it is below. (Left-click and drag to rotate the view; Right-click and drag to move the view; Use scroll wheel to zoom in our out.)

The orbital elements of Lamberta are:

            e (Eccentricity)                : 0.2404274
            a (Semimajor axis)              : 2.7278337
            i (Inclination)                 : 10.58236
            Ω (Longitude of ascending node) : 21.67249
            ω (Argument of perihelion)      : 196.68723
            M (Mean anomaly)                : 66.52868
            Epoch                           : 2023 Sep 13

            L (Longitude of perihelion)     : 38.09131
            B (Latitude of perihelion)      : -3.02285
            P (Orbital period in years)     : 4.51            
        

The light curve chart below shows the estimated development of the minor planet's magnitude.


The all-sky chart below shows the path of the minor planet over the same period as the light curve. The current position is marked yellow.





The following chart shows the path of the minor planet in the next few days. The field of view is optimized for (~10x50) binoculars and finderscopes. A more printer-friendly version of the same chart can be found below.




Ephemerides:
Date       Time       RA (2000)    DEC (2000)    delta   radius  elong  phase   PA    magn
2024-04-18 00:00 UT   00 16 11.2   -02 20 58     3.983    3.108   25.6    8.0   239   14.4 
2024-04-18 10:54 UT   00 16 45.1   -02 16 52     3.981    3.109   25.9    8.1   239   14.5 
2024-04-19 00:00 UT   00 17 25.8   -02 11 56     3.979    3.110   26.2    8.2   239   14.5 
2024-04-20 00:00 UT   00 18 40.1   -02 02 56     3.975    3.112   26.8    8.4   239   14.5 
2024-04-21 00:00 UT   00 19 54.2   -01 53 57     3.970    3.113   27.5    8.6   239   14.5 
2024-04-22 00:00 UT   00 21 08.0   -01 45 01     3.966    3.115   28.1    8.7   240   14.5 
2024-04-23 00:00 UT   00 22 21.7   -01 36 07     3.961    3.117   28.7    8.9   240   14.5 
2024-04-24 00:00 UT   00 23 35.0   -01 27 15     3.956    3.119   29.3    9.1   240   14.5 
2024-04-25 00:00 UT   00 24 48.2   -01 18 25     3.951    3.121   30.0    9.3   240   14.5 
2024-04-26 00:00 UT   00 26 01.0   -01 09 37     3.946    3.122   30.6    9.4   240   14.5 
2024-04-27 00:00 UT   00 27 13.7   -01 00 52     3.941    3.124   31.2    9.6   241   14.5 
2024-04-28 00:00 UT   00 28 26.1   +00 52 08     3.935    3.126   31.9    9.8   241   14.5 
2024-04-29 00:00 UT   00 29 38.2   +00 43 27     3.930    3.128   32.5   10.0   241   14.5 
2024-04-30 00:00 UT   00 30 50.1   +00 34 48     3.924    3.129   33.1   10.1   241   14.5 
2024-05-01 00:00 UT   00 32 01.7   +00 26 11     3.918    3.131   33.8   10.3   241   14.5 
2024-05-02 00:00 UT   00 33 13.1   +00 17 37     3.912    3.133   34.4   10.5   242   14.5 
2024-05-03 00:00 UT   00 34 24.2   +00 09 04     3.906    3.134   35.0   10.6   242   14.5 
2024-05-04 00:00 UT   00 35 35.0   +00 00 35     3.900    3.136   35.7   10.8   242   14.5 
2024-05-05 00:00 UT   00 36 45.5   +00 07 53     3.893    3.138   36.3   11.0   242   14.5 
2024-05-06 00:00 UT   00 37 55.8   +00 16 18     3.887    3.140   37.0   11.1   242   14.5 
2024-05-07 00:00 UT   00 39 05.8   +00 24 40     3.880    3.141   37.6   11.3   242   14.5 
2024-05-08 00:00 UT   00 40 15.5   +00 32 60     3.873    3.143   38.2   11.5   242   14.6 
2024-05-09 00:00 UT   00 41 24.8   +00 41 17     3.866    3.145   38.9   11.6   243   14.6 
2024-05-10 00:00 UT   00 42 33.9   +00 49 32     3.859    3.146   39.5   11.8   243   14.6 
2024-05-11 00:00 UT   00 43 42.7   +00 57 44     3.852    3.148   40.2   11.9   243   14.6 
2024-05-12 00:00 UT   00 44 51.1   +01 05 53     3.844    3.150   40.8   12.1   243   14.6 
2024-05-13 00:00 UT   00 45 59.3   +01 13 60     3.837    3.151   41.5   12.3   243   14.6 


    Terminology:
            
    delta:  distance between minor planet and earth in AU
    radius: distance between minor planet and sun in AU
    magn:   magnitude (brightness) estimate    
    ra:     right ascension in hours (24h = 360deg)
    dec:    declination in degrees
    elong:  elongation in degrees (angle sun-earth-minor planet)    
    phase:  phase angle in degrees (angle sun-minor planet-earth)        
    AU:     Astronomical Unit (mean distance between earth and sun: 149597870.7 km
    

Orbital elements provided by the MPC (Minor Planet Center).
Calculations by a modified version of AAPlus, a C# implementation of the AA+ project by PJ Naughter from the algorithms presented in the book "Astronomical Algorithms" by Jean Meeus.
NGC2000 dso catalog and star labels from VizieR as provided by the Strasbourg astronomical Data Center.
Tycho2 catalog from the ESO archive.